Time,TemperatureF,DewpointF,PressureIn,WindDirection,WindDirectionDegrees,WindSpeedMPH,WindSpeedGustMPH,Humidity,HourlyPrecipIn,Conditions,Clouds,dailyrainin,SoftwareType,DateUTC
2013-02-17 00:02:00,-999.0,-99.9,29.77,NNE,25,15.0,21.0,-999,-99.99,,,-99.99,,2013-02-17 09:02:00,
2013-02-17 00:11:00,-999.0,-99.9,29.77,NNE,31,16.0,24.0,-999,-99.99,,,-99.99,,2013-02-17 09:11:00,
2013-02-17 00:21:00,21.0,-99.9,29.77,NE,35,14.0,22.0,-999,-99.99,,,-99.99,,2013-02-17 09:21:00,
2013-02-17 00:32:00,-999.0,-99.9,29.76,NE,40,15.0,24.0,-999,-99.99,,,-99.99,,2013-02-17 09:32:00,
2013-02-17 00:42:00,21.0,-99.9,29.76,NE,36,14.0,25.0,-999,-99.99,,,-99.99,,2013-02-17 09:42:00,
2013-02-17 00:52:00,-999.0,-99.9,29.75,NE,43,17.0,25.0,-999,-99.99,,,-99.99,,2013-02-17 09:52:00,
2013-02-17 01:01:00,-999.0,-99.9,29.75,NE,44,16.0,25.0,-999,-99.99,,,-99.99,,2013-02-17 10:01:00,
2013-02-17 01:11:00,-999.0,-99.9,29.74,NE,42,15.0,21.0,-999,-99.99,,,-99.99,,2013-02-17 10:11:00,
2013-02-17 01:22:00,21.0,-99.9,29.74,NE,35,16.0,22.0,-999,-99.99,,,-99.99,,2013-02-17 10:22:00,
2013-02-17 01:32:00,-999.0,-99.9,29.74,NE,41,16.0,25.0,-999,-99.99,,,-99.99,,2013-02-17 10:32:00,
2013-02-17 01:42:00,-999.0,-99.9,29.74,NE,43,15.0,23.0,-999,-99.99,,,-99.99,,2013-02-17 10:42:00,
2013-02-17 01:52:00,21.0,-99.9,29.73,NE,39,15.0,22.0,-999,-99.99,,,-99.99,,2013-02-17 10:52:00,
2013-02-17 02:01:00,-999.0,-99.9,29.72,NE,42,17.0,26.0,-999,-99.99,,,-99.99,,2013-02-17 11:01:00,
2013-02-17 02:11:00,21.0,-99.9,29.72,NE,40,19.0,24.0,-999,-99.99,,,-99.99,,2013-02-17 11:11:00,
2013-02-17 02:22:00,-999.0,-99.9,29.72,NE,39,17.0,24.0,-999,-99.99,,,-99.99,,2013-02-17 11:22:00,
2013-02-17 02:32:00,-999.0,-99.9,29.72,NE,42,17.0,26.0,-999,-99.99,,,-99.99,,2013-02-17 11:32:00,
2013-02-17 02:42:00,-999.0,-99.9,29.71,NE,43,19.0,24.0,-999,-99.99,,,-99.99,,2013-02-17 11:42:00,
2013-02-17 02:53:00,-999.0,-99.9,29.71,NE,39,15.0,22.0,-999,-99.99,,,-99.99,,2013-02-17 11:53:00,
2013-02-17 03:03:00,-999.0,-99.9,29.71,NE,42,13.0,21.0,-999,-99.99,,,-99.99,,2013-02-17 12:03:00,
2013-02-17 03:11:00,-999.0,-99.9,29.70,NE,37,15.0,26.0,-999,-99.99,,,-99.99,,2013-02-17 12:11:00,
2013-02-17 03:22:00,21.0,-99.9,29.70,NE,42,16.0,25.0,-999,-99.99,,,-99.99,,2013-02-17 12:22:00,
2013-02-17 03:32:00,-999.0,-99.9,29.70,NE,46,16.0,23.0,-999,-99.99,,,-99.99,,2013-02-17 12:32:00,
2013-02-17 03:42:00,21.0,-99.9,29.69,NE,39,14.0,21.0,-999,-99.99,,,-99.99,,2013-02-17 12:42:00,
2013-02-17 03:52:00,-999.0,-99.9,29.68,NE,39,17.0,21.0,-999,-99.99,,,-99.99,,2013-02-17 12:52:00,
2013-02-17 04:02:00,-999.0,-99.9,29.68,NE,49,17.0,23.0,-999,-99.99,,,-99.99,,2013-02-17 13:02:00,
2013-02-17 04:12:00,22.0,-99.9,29.67,NE,47,18.0,25.0,-999,-99.99,,,-99.99,,2013-02-17 13:12:00,
2013-02-17 04:22:00,-999.0,-99.9,29.67,NE,42,17.0,25.0,-999,-99.99,,,-99.99,,2013-02-17 13:22:00,
2013-02-17 04:32:00,-999.0,-99.9,29.67,NE,40,16.0,22.0,-999,-99.99,,,-99.99,,2013-02-17 13:32:00,
2013-02-17 04:42:00,-999.0,-99.9,29.67,NE,44,18.0,22.0,-999,-99.99,,,-99.99,,2013-02-17 13:42:00,
2013-02-17 04:52:00,22.0,-99.9,29.67,NE,41,17.0,24.0,-999,-99.99,,,-99.99,,2013-02-17 13:52:00,
2013-02-17 05:01:00,-999.0,-99.9,29.66,NE,44,16.0,23.0,-999,-99.99,,,-99.99,,2013-02-17 14:01:00,
2013-02-17 05:11:00,-999.0,-99.9,29.66,NE,38,18.0,25.0,-999,-99.99,,,-99.99,,2013-02-17 14:11:00,
2013-02-17 05:22:00,23.0,-99.9,29.65,NE,35,16.0,20.0,-999,-99.99,,,-99.99,,2013-02-17 14:22:00,
2013-02-17 05:32:00,-999.0,-99.9,29.65,NE,45,15.0,23.0,-999,-99.99,,,-99.99,,2013-02-17 14:32:00,
2013-02-17 05:42:00,23.0,-99.9,29.65,NE,41,13.0,20.0,-999,-99.99,,,-99.99,,2013-02-17 14:42:00,
2013-02-17 05:53:00,-999.0,-99.9,29.65,NE,40,16.0,21.0,-999,-99.99,,,-99.99,,2013-02-17 14:53:00,
2013-02-17 06:02:00,-999.0,-99.9,29.64,NE,41,18.0,24.0,-999,-99.99,,,-99.99,,2013-02-17 15:02:00,
2013-02-17 06:11:00,-999.0,-99.9,29.64,NE,36,14.0,20.0,-999,-99.99,,,-99.99,,2013-02-17 15:11:00,
2013-02-17 06:22:00,23.0,-99.9,29.64,NE,36,13.0,22.0,-999,-99.99,,,-99.99,,2013-02-17 15:22:00,
2013-02-17 06:32:00,-999.0,-99.9,29.64,NNE,31,15.0,22.0,-999,-99.99,,,-99.99,,2013-02-17 15:32:00,
2013-02-17 06:42:00,-999.0,-99.9,29.63,NE,39,16.0,23.0,-999,-99.99,,,-99.99,,2013-02-17 15:42:00,
2013-02-17 06:52:00,23.0,-99.9,29.63,NE,38,17.0,23.0,-999,-99.99,,,-99.99,,2013-02-17 15:52:00,
2013-02-17 07:02:00,-999.0,-99.9,29.63,NE,38,14.0,20.0,-999,-99.99,,,-99.99,,2013-02-17 16:02:00,
2013-02-17 07:12:00,24.0,-99.9,29.63,NE,37,13.0,19.0,-999,-99.99,,,-99.99,,2013-02-17 16:12:00,
2013-02-17 07:22:00,-999.0,-99.9,29.63,NNE,29,13.0,17.0,-999,-99.99,,,-99.99,,2013-02-17 16:22:00,
2013-02-17 07:32:00,-999.0,-99.9,29.63,NE,43,14.0,21.0,-999,-99.99,,,-99.99,,2013-02-17 16:32:00,
2013-02-17 07:42:00,-999.0,-99.9,29.62,NE,42,14.0,21.0,-999,-99.99,,,-99.99,,2013-02-17 16:42:00,
2013-02-17 07:52:00,-999.0,-99.9,29.62,NE,44,12.0,20.0,-999,-99.99,,,-99.99,,2013-02-17 16:52:00,
2013-02-17 08:02:00,-999.0,-99.9,29.62,NE,41,11.0,21.0,-999,-99.99,,,-99.99,,2013-02-17 17:02:00,
2013-02-17 08:11:00,-999.0,-99.9,29.62,NE,44,14.0,17.0,-999,-99.99,,,-99.99,,2013-02-17 17:11:00,
2013-02-17 08:22:00,24.0,-99.9,29.62,NE,34,14.0,18.0,-999,-99.99,,,-99.99,,2013-02-17 17:22:00,
2013-02-17 08:32:00,-999.0,-99.9,29.61,NE,42,13.0,18.0,-999,-99.99,,,-99.99,,2013-02-17 17:32:00,
2013-02-17 08:42:00,-999.0,-99.9,29.61,NE,41,12.0,17.0,-999,-99.99,,,-99.99,,2013-02-17 17:42:00,
2013-02-17 08:53:00,24.0,-99.9,29.60,NE,49,13.0,19.0,-999,-99.99,,,-99.99,,2013-02-17 17:53:00,
2013-02-17 09:02:00,-999.0,-99.9,29.60,NE,41,15.0,18.0,-999,-99.99,,,-99.99,,2013-02-17 18:02:00,
2013-02-17 09:11:00,24.0,-99.9,29.60,NE,42,15.0,21.0,-999,-99.99,,,-99.99,,2013-02-17 18:11:00,
2013-02-17 09:22:00,-999.0,-99.9,29.60,NE,35,10.0,16.0,-999,-99.99,,,-99.99,,2013-02-17 18:22:00,
2013-02-17 09:33:00,-999.0,-99.9,29.60,NE,40,12.0,17.0,-999,-99.99,,,-99.99,,2013-02-17 18:33:00,
2013-02-17 09:42:00,-999.0,-99.9,29.60,NE,43,11.0,16.0,-999,-99.99,,,-99.99,,2013-02-17 18:42:00,
2013-02-17 09:52:00,24.0,-99.9,29.60,NE,34,11.0,17.0,-999,-99.99,,,-99.99,,2013-02-17 18:52:00,
2013-02-17 10:02:00,-999.0,-99.9,29.60,NE,34,11.0,18.0,-999,-99.99,,,-99.99,,2013-02-17 19:02:00,
2013-02-17 10:11:00,-999.0,-99.9,29.60,NNE,32,15.0,19.0,-999,-99.99,,,-99.99,,2013-02-17 19:11:00,
2013-02-17 10:22:00,24.0,-99.9,29.59,NE,34,14.0,17.0,-999,-99.99,,,-99.99,,2013-02-17 19:22:00,
2013-02-17 10:32:00,-999.0,-99.9,29.60,NNE,27,14.0,19.0,-999,-99.99,,,-99.99,,2013-02-17 19:32:00,
2013-02-17 10:42:00,25.0,-99.9,29.60,NE,34,10.0,17.0,-999,-99.99,,,-99.99,,2013-02-17 19:42:00,
2013-02-17 10:52:00,-999.0,-99.9,29.60,NNE,30,13.0,18.0,-999,-99.99,,,-99.99,,2013-02-17 19:52:00,
2013-02-17 11:02:00,-999.0,-99.9,29.60,NNE,22,9.0,13.0,-999,-99.99,,,-99.99,,2013-02-17 20:02:00,
2013-02-17 11:11:00,-999.0,-99.9,29.60,NE,34,9.0,16.0,-999,-99.99,,,-99.99,,2013-02-17 20:11:00,
2013-02-17 11:22:00,-999.0,-99.9,29.60,NE,36,11.0,16.0,-999,-99.99,,,-99.99,,2013-02-17 20:22:00,
2013-02-17 11:32:00,-999.0,-99.9,29.60,NNE,32,11.0,17.0,-999,-99.99,,,-99.99,,2013-02-17 20:32:00,
2013-02-17 11:43:00,-999.0,-99.9,29.60,NE,35,11.0,17.0,-999,-99.99,,,-99.99,,2013-02-17 20:43:00,
2013-02-17 11:52:00,25.0,-99.9,29.60,NE,37,12.0,17.0,-999,-99.99,,,-99.99,,2013-02-17 20:52:00,
2013-02-17 12:02:00,-999.0,-99.9,29.60,NNE,33,10.0,14.0,-999,-99.99,,,-99.99,,2013-02-17 21:02:00,
2013-02-17 12:11:00,25.0,-99.9,29.60,NNE,30,9.0,17.0,-999,-99.99,,,-99.99,,2013-02-17 21:11:00,
2013-02-17 12:22:00,-999.0,-99.9,29.60,NNE,30,11.0,15.0,-999,-99.99,,,-99.99,,2013-02-17 21:22:00,
2013-02-17 12:32:00,-999.0,-99.9,29.60,NNE,31,12.0,15.0,-999,-99.99,,,-99.99,,2013-02-17 21:32:00,
2013-02-17 12:42:00,-999.0,-99.9,29.59,NNE,31,12.0,16.0,-999,-99.99,,,-99.99,,2013-02-17 21:42:00,
2013-02-17 12:53:00,-999.0,-99.9,29.59,NNE,32,13.0,17.0,-999,-99.99,,,-99.99,,2013-02-17 21:53:00,
2013-02-17 13:01:00,-999.0,-99.9,29.60,NNE,30,9.0,18.0,-999,-99.99,,,-99.99,,2013-02-17 22:01:00,
2013-02-17 13:12:00,-999.0,-99.9,29.60,NE,34,10.0,16.0,-999,-99.99,,,-99.99,,2013-02-17 22:12:00,
2013-02-17 13:22:00,26.0,-99.9,29.60,NNE,32,13.0,18.0,-999,-99.99,,,-99.99,,2013-02-17 22:22:00,
2013-02-17 13:32:00,-999.0,-99.9,29.60,NNE,31,14.0,17.0,-999,-99.99,,,-99.99,,2013-02-17 22:32:00,
2013-02-17 13:42:00,26.0,-99.9,29.60,NNE,30,10.0,20.0,-999,-99.99,,,-99.99,,2013-02-17 22:42:00,
2013-02-17 13:52:00,-999.0,-99.9,29.60,NNE,29,11.0,17.0,-999,-99.99,,,-99.99,,2013-02-17 22:52:00,
2013-02-17 14:02:00,-999.0,-99.9,29.60,NE,37,11.0,16.0,-999,-99.99,,,-99.99,,2013-02-17 23:02:00,
2013-02-17 14:11:00,-999.0,-99.9,29.59,NE,36,9.0,13.0,-999,-99.99,,,-99.99,,2013-02-17 23:11:00,
2013-02-17 14:22:00,26.0,-99.9,29.59,NNE,31,10.0,13.0,-999,-99.99,,,-99.99,,2013-02-17 23:22:00,
2013-02-17 14:32:00,-999.0,-99.9,29.60,NE,37,10.0,16.0,-999,-99.99,,,-99.99,,2013-02-17 23:32:00,
2013-02-17 14:42:00,-999.0,-99.9,29.60,NNE,21,9.0,15.0,-999,-99.99,,,-99.99,,2013-02-17 23:42:00,
2013-02-17 14:52:00,26.0,-99.9,29.60,NNE,23,9.0,12.0,-999,-99.99,,,-99.99,,2013-02-17 23:52:00,
2013-02-17 15:02:00,-999.0,-99.9,29.60,NNE,26,12.0,17.0,-999,-99.99,,,-99.99,,2013-02-18 00:02:00,
2013-02-17 15:12:00,27.0,-99.9,29.60,NNE,31,10.0,18.0,-999,-99.99,,,-99.99,,2013-02-18 00:12:00,
2013-02-17 15:22:00,-999.0,-99.9,29.60,NNE,24,9.0,15.0,-999,-99.99,,,-99.99,,2013-02-18 00:22:00,
2013-02-17 15:32:00,-999.0,-99.9,29.59,NNE,27,9.0,14.0,-999,-99.99,,,-99.99,,2013-02-18 00:32:00,
2013-02-17 15:42:00,-999.0,-99.9,29.60,NNE,27,10.0,15.0,-999,-99.99,,,-99.99,,2013-02-18 00:42:00,
2013-02-17 15:52:00,-999.0,-99.9,29.60,NNE,30,10.0,12.0,-999,-99.99,,,-99.99,,2013-02-18 00:52:00,
2013-02-17 16:01:00,-999.0,-99.9,29.60,NNE,21,7.0,10.0,-999,-99.99,,,-99.99,,2013-02-18 01:01:00,
2013-02-17 16:12:00,-999.0,-99.9,29.60,NNE,28,7.0,10.0,-999,-99.99,,,-99.99,,2013-02-18 01:12:00,
2013-02-17 16:22:00,27.0,-99.9,29.60,NNE,25,7.0,12.0,-999,-99.99,,,-99.99,,2013-02-18 01:22:00,
2013-02-17 16:32:00,-999.0,-99.9,29.61,NNE,22,10.0,15.0,-999,-99.99,,,-99.99,,2013-02-18 01:32:00,
2013-02-17 16:42:00,27.0,-99.9,29.61,NNE,17,10.0,14.0,-999,-99.99,,,-99.99,,2013-02-18 01:42:00,
2013-02-17 16:52:00,-999.0,-99.9,29.61,NNE,22,10.0,14.0,-999,-99.99,,,-99.99,,2013-02-18 01:52:00,
2013-02-17 17:02:00,-999.0,-99.9,29.61,NNE,21,9.0,12.0,-999,-99.99,,,-99.99,,2013-02-18 02:02:00,
2013-02-17 17:11:00,-999.0,-99.9,29.61,NNE,22,8.0,13.0,-999,-99.99,,,-99.99,,2013-02-18 02:11:00,
2013-02-17 17:22:00,-999.0,-99.9,29.61,NNE,19,10.0,16.0,-999,-99.99,,,-99.99,,2013-02-18 02:22:00,
2013-02-17 17:32:00,-999.0,-99.9,29.62,NNE,24,9.0,15.0,-999,-99.99,,,-99.99,,2013-02-18 02:32:00,
2013-02-17 17:42:00,-999.0,-99.9,29.62,NE,36,9.0,13.0,-999,-99.99,,,-99.99,,2013-02-18 02:42:00,
2013-02-17 17:52:00,27.0,-99.9,29.62,NNE,29,8.0,11.0,-999,-99.99,,,-99.99,,2013-02-18 02:52:00,
2013-02-17 18:02:00,-999.0,-99.9,29.62,NNE,15,6.0,9.0,-999,-99.99,,,-99.99,,2013-02-18 03:02:00,
2013-02-17 18:12:00,28.0,-99.9,29.63,NE,38,7.0,10.0,-999,-99.99,,,-99.99,,2013-02-18 03:12:00,
2013-02-17 18:22:00,-999.0,-99.9,29.63,NNE,25,8.0,11.0,-999,-99.99,,,-99.99,,2013-02-18 03:22:00,
2013-02-17 18:32:00,-999.0,-99.9,29.64,NNE,22,11.0,15.0,-999,-99.99,,,-99.99,,2013-02-18 03:32:00,
2013-02-17 18:42:00,28.0,-99.9,29.64,NNE,25,10.0,14.0,-999,-99.99,,,-99.99,,2013-02-18 03:42:00,
2013-02-17 18:52:00,-999.0,-99.9,29.65,NNE,27,11.0,14.0,-999,-99.99,,,-99.99,,2013-02-18 03:52:00,
2013-02-17 19:01:00,-999.0,-99.9,29.65,North,10,11.0,14.0,-999,-99.99,,,-99.99,,2013-02-18 04:01:00,
2013-02-17 19:11:00,-999.0,-99.9,29.65,North,5,11.0,13.0,-999,-99.99,,,-99.99,,2013-02-18 04:11:00,
2013-02-17 19:22:00,28.0,-99.9,29.66,North,7,13.0,14.0,-999,-99.99,,,-99.99,,2013-02-18 04:22:00,
2013-02-17 19:32:00,-999.0,-99.9,29.66,North,10,13.0,17.0,-999,-99.99,,,-99.99,,2013-02-18 04:32:00,
2013-02-17 19:42:00,-999.0,-99.9,29.67,NNE,16,15.0,19.0,-999,-99.99,,,-99.99,,2013-02-18 04:42:00,
2013-02-17 19:52:00,27.0,-99.9,29.67,North,10,15.0,17.0,-999,-99.99,,,-99.99,,2013-02-18 04:52:00,
2013-02-17 20:02:00,-999.0,-99.9,29.67,North,10,14.0,17.0,-999,-99.99,,,-99.99,,2013-02-18 05:02:00,
2013-02-17 20:11:00,26.0,-99.9,29.67,North,8,13.0,16.0,-999,-99.99,,,-99.99,,2013-02-18 05:11:00,
2013-02-17 20:21:00,-999.0,-99.9,29.68,North,10,9.0,13.0,-999,-99.99,,,-99.99,,2013-02-18 05:21:00,
2013-02-17 20:32:00,-999.0,-99.9,29.69,North,11,9.0,12.0,-999,-99.99,,,-99.99,,2013-02-18 05:32:00,
2013-02-17 20:42:00,-999.0,-99.9,29.69,North,8,7.0,12.0,-999,-99.99,,,-99.99,,2013-02-18 05:42:00,
2013-02-17 20:52:00,26.0,-99.9,29.69,North,4,8.0,10.0,-999,-99.99,,,-99.99,,2013-02-18 05:52:00,
2013-02-17 21:02:00,-999.0,-99.9,29.70,North,6,6.0,11.0,-999,-99.99,,,-99.99,,2013-02-18 06:02:00,
2013-02-17 21:11:00,-999.0,-99.9,29.70,NNE,22,8.0,12.0,-999,-99.99,,,-99.99,,2013-02-18 06:11:00,
2013-02-17 21:22:00,25.0,-99.9,29.70,North,9,6.0,9.0,-999,-99.99,,,-99.99,,2013-02-18 06:22:00,
2013-02-17 21:32:00,-999.0,-99.9,29.71,North,7,6.0,8.0,-999,-99.99,,,-99.99,,2013-02-18 06:32:00,
2013-02-17 21:42:00,25.0,-99.9,29.71,North,7,6.0,8.0,-999,-99.99,,,-99.99,,2013-02-18 06:42:00,
2013-02-17 21:52:00,-999.0,-99.9,29.71,NNE,28,7.0,9.0,-999,-99.99,,,-99.99,,2013-02-18 06:52:00,
2013-02-17 22:02:00,-999.0,-99.9,29.72,NNE,25,5.0,7.0,-999,-99.99,,,-99.99,,2013-02-18 07:02:00,
2013-02-17 22:11:00,-999.0,-99.9,29.73,NNE,15,4.0,6.0,-999,-99.99,,,-99.99,,2013-02-18 07:11:00,
2013-02-17 22:22:00,-999.0,-99.9,29.73,NNE,20,7.0,9.0,-999,-99.99,,,-99.99,,2013-02-18 07:22:00,
2013-02-17 22:32:00,-999.0,-99.9,29.74,NNE,12,8.0,10.0,-999,-99.99,,,-99.99,,2013-02-18 07:32:00,
2013-02-17 22:42:00,-999.0,-99.9,29.74,NNE,23,11.0,13.0,-999,-99.99,,,-99.99,,2013-02-18 07:42:00,
2013-02-17 22:52:00,23.0,-99.9,29.74,NNE,23,13.0,15.0,-999,-99.99,,,-99.99,,2013-02-18 07:52:00,
2013-02-17 23:02:00,-999.0,-99.9,29.74,NNE,22,11.0,19.0,-999,-99.99,,,-99.99,,2013-02-18 08:02:00,
2013-02-17 23:11:00,23.0,-99.9,29.75,NNE,20,11.0,17.0,-999,-99.99,,,-99.99,,2013-02-18 08:11:00,
2013-02-17 23:22:00,-999.0,-99.9,29.75,NNE,25,12.0,18.0,-999,-99.99,,,-99.99,,2013-02-18 08:22:00,
2013-02-17 23:33:00,-999.0,-99.9,29.76,NE,43,10.0,14.0,-999,-99.99,,,-99.99,,2013-02-18 08:33:00,
2013-02-17 23:42:00,-999.0,-99.9,29.77,NNE,17,8.0,11.0,-999,-99.99,,,-99.99,,2013-02-18 08:42:00,
2013-02-17 23:52:00,-999.0,-99.9,29.78,NNE,20,9.0,10.0,-999,-99.99,,,-99.99,,2013-02-18 08:52:00,